User: anonymous
Location: Mentone
(34.5413°N, 85.5351°W)
Time: 21:56:29
(UTC-05:00)
Language:

ADEOS Rocket - Orbit

View from above orbital plane
View from above orbital plane
View from above satellite
View from above satellite

Ground track
Ground track

The orbit data is extracted from the following two-line orbital elements,

1 24279U 96046C   14210.32871762 -.00000047  00000-0 -16090-4 0  6948
2 24279 098.7448 272.6904 0301255 097.5351 306.6221 13.46988661882361
Epoch (UTC): 29 July 2014 07:53:21
Eccentricity: 0.0301255
inclination: 98.7448°
perigee height: 858 km
apogee height: 1308 km
right ascension of ascending node: 272.6904°
argument of perigee: 97.5351°
revolutions per day: 13.46988661
mean anomaly at epoch: 306.6221°
orbit number at epoch: 88236

The dashed part of the orbit path shows where the satellite is in the earth's shadow,  

DLR